Weather History for Fosston, MN

Change the Weather History Date:

Friday, December 17, 2010

  Actual Average Record
Temperature  
Mean Temperature 10 °F -  
Max Temperature 14 °F 20 °F 41 °F (2001)
Min Temperature 6 °F 2 °F -28 °F (1983)
Degree Days  
Heating Degree Days 55    
Moisture  
Dew Point 6 °F    
Average Humidity 84    
Maximum Humidity 92    
Minimum Humidity 73    
Precipitation  
Precipitation 0.00 in - - ()
Sea Level Pressure  
Sea Level Pressure 29.95 in    
Wind  
Wind Speed 10 mph (West)    
Max Wind Speed 14 mph    
Max Gust Speed -    
Visibility 5 miles    
Events Snow    
Averages and records for this station are not official NWS values.
T = Trace of Precipitation, MM = Missing Value Source: NWS Daily Summary

Daily Weather History Graph

Daily Weather History Graph

Search for Another Location

Airport:

Trip Planner

Search our weather history database for the weather conditions in past years. The results will help you decide how hot, cold, wet, or windy it might be!

Date:

Astronomy

Dec. 17, 2010 Rise Set
Actual Time 8:06 AM CST 4:32 PM CST
Civil Twilight 7:30 AM CST 5:08 PM CST
Nautical Twilight 6:50 AM CST 5:47 PM CST
Astronomical Twilight 6:13 AM CST 6:25 PM CST
Moon 1:43 PM CST (12/17) 4:20 AM CST (12/17)
Length of Visible Light 9h 38m
Length of Day
8h 26m
Waxing Gibbous, 86% of the Moon is Illuminated
Dec 17
Waxing Gibbous
Dec 21
Full
Dec 27
Last Quarter
Jan 4
New
Jan 12
First Quarter

Hourly Weather History & Observations

Time (CST) Temp. Windchill Dew Point Humidity Pressure Visibility Wind Dir Wind Speed Gust Speed Precip Events Conditions
12:13 AM 8.6 °F -5.5 °F 5.0 °F 85% 29.95 in 7.0 mi WNW 10.4 mph - N/A Snow Light Snow
12:33 AM 8.6 °F -7.0 °F 5.0 °F 85% 29.96 in 7.0 mi WNW 12.7 mph - N/A   Overcast
12:53 AM 8.6 °F -5.5 °F 5.0 °F 85% 29.95 in 5.0 mi WNW 10.4 mph - N/A Snow Light Snow
1:12 AM 8.6 °F -4.7 °F 5.0 °F 85% 29.95 in 7.0 mi WNW 9.2 mph - N/A Snow Light Snow
1:33 AM 8.6 °F -5.5 °F 5.0 °F 85% 29.95 in 7.0 mi West 10.4 mph - N/A Snow Light Snow
1:53 AM 8.6 °F -6.3 °F 5.0 °F 85% 29.96 in 7.0 mi WNW 11.5 mph - N/A Snow Light Snow
2:13 AM 8.6 °F -3.7 °F 5.0 °F 85% 29.96 in 5.0 mi WNW 8.1 mph - N/A   Overcast
2:33 AM 8.6 °F -3.7 °F 5.0 °F 85% 29.96 in 5.0 mi WNW 8.1 mph - N/A Snow Light Snow
2:53 AM 8.6 °F -5.5 °F 5.0 °F 85% 29.96 in 7.0 mi West 10.4 mph - N/A Snow Light Snow
3:13 AM 8.6 °F -5.5 °F 5.0 °F 85% 29.96 in 5.0 mi West 10.4 mph - N/A Snow Light Snow
3:33 AM 8.6 °F -5.5 °F 5.0 °F 85% 29.96 in 4.0 mi West 10.4 mph - N/A Snow Light Snow
3:53 AM 8.6 °F -4.7 °F 5.0 °F 85% 29.95 in 5.0 mi West 9.2 mph - N/A   Overcast
4:13 AM 8.6 °F -5.5 °F 5.0 °F 85% 29.96 in 5.0 mi West 10.4 mph - N/A Snow Light Snow
4:33 AM 8.6 °F -4.7 °F 5.0 °F 85% 29.95 in 5.0 mi West 9.2 mph - N/A Snow Light Snow
4:53 AM 8.6 °F -3.7 °F 5.0 °F 85% 29.95 in 3.0 mi West 8.1 mph - N/A Snow Light Snow
5:13 AM 8.6 °F -2.6 °F 5.0 °F 85% 29.95 in 1.8 mi WSW 6.9 mph - N/A Snow Light Snow
5:33 AM 6.8 °F -5.9 °F 3.2 °F 85% 29.95 in 4.0 mi West 8.1 mph - N/A Snow Light Snow
5:53 AM 6.8 °F -6.9 °F 3.2 °F 85% 29.95 in 5.0 mi West 9.2 mph - N/A Snow Light Snow
6:13 AM 6.8 °F -6.9 °F 3.2 °F 85% 29.95 in 4.0 mi West 9.2 mph - N/A Snow Light Snow
6:32 AM 6.8 °F -4.8 °F 3.2 °F 85% 29.95 in 3.0 mi West 6.9 mph - N/A Snow Light Snow
6:53 AM 6.8 °F -6.9 °F 3.2 °F 85% 29.95 in 5.0 mi West 9.2 mph - N/A Snow Light Snow
7:12 AM 6.8 °F -9.3 °F 5.0 °F 92% 29.95 in 10.0 mi West 12.7 mph - N/A   Overcast
7:33 AM 8.6 °F -5.5 °F 5.0 °F 85% 29.95 in 7.0 mi West 10.4 mph - N/A Snow Light Snow
7:53 AM 8.6 °F -6.3 °F 5.0 °F 85% 29.95 in 7.0 mi West 11.5 mph - N/A   Overcast
8:13 AM 8.6 °F -6.3 °F 3.2 °F 79% 29.96 in 7.0 mi West 11.5 mph - N/A   Overcast
8:33 AM 8.6 °F -5.5 °F 5.0 °F 85% 29.96 in 5.0 mi WNW 10.4 mph - N/A   Overcast
8:53 AM 8.6 °F -5.5 °F 5.0 °F 85% 29.96 in 4.0 mi West 10.4 mph - N/A   Overcast
9:12 AM 8.6 °F -5.5 °F 5.0 °F 85% 29.97 in 2.0 mi WNW 10.4 mph - N/A Snow Light Snow
9:33 AM 8.6 °F -5.5 °F 5.0 °F 85% 29.96 in 5.0 mi WNW 10.4 mph - N/A   Overcast
9:53 AM 8.6 °F -5.5 °F 5.0 °F 85% 29.97 in 3.0 mi WNW 10.4 mph - N/A Snow Light Snow
10:13 AM 10.4 °F -3.3 °F 5.0 °F 79% 29.96 in 4.0 mi WNW 10.4 mph - N/A Snow Light Snow
10:33 AM 10.4 °F -3.3 °F 5.0 °F 79% 29.96 in 3.0 mi WNW 10.4 mph - N/A Snow Light Snow
10:53 AM 10.4 °F -2.4 °F 6.8 °F 85% 29.96 in 4.0 mi WNW 9.2 mph - N/A Snow Light Snow
11:13 AM 10.4 °F -4.8 °F 5.0 °F 79% 29.96 in 4.0 mi WNW 12.7 mph - N/A Snow Light Snow
11:33 AM 12.2 °F -0.2 °F 6.8 °F 79% 29.96 in 2.5 mi WNW 9.2 mph - N/A Snow Light Snow
11:53 AM 12.2 °F -1.8 °F 6.8 °F 79% 29.95 in 2.5 mi West 11.5 mph - N/A Snow Light Snow
12:13 PM 12.2 °F -1.8 °F 6.8 °F 79% 29.94 in 4.0 mi West 11.5 mph - N/A Snow Light Snow
12:33 PM 12.2 °F -1.0 °F 6.8 °F 79% 29.94 in 5.0 mi West 10.4 mph - N/A   Overcast
12:53 PM 12.2 °F -1.8 °F 6.8 °F 79% 29.94 in 4.0 mi West 11.5 mph - N/A Snow Light Snow
1:13 PM 14.0 °F -0.8 °F 6.8 °F 73% 29.94 in 3.0 mi West 13.8 mph - N/A Snow Light Snow
1:33 PM 12.2 °F -3.1 °F 6.8 °F 79% 29.93 in 10.0 mi West 13.8 mph - N/A Snow Light Snow
1:53 PM 14.0 °F 2.0 °F 6.8 °F 73% 29.93 in 10.0 mi West 9.2 mph - N/A   Overcast
2:12 PM 12.2 °F -2.5 °F 6.8 °F 79% 29.93 in 3.0 mi West 12.7 mph - N/A Snow Light Snow
2:33 PM 12.2 °F -0.2 °F 6.8 °F 79% 29.94 in 7.0 mi West 9.2 mph - N/A   Overcast
2:53 PM 12.2 °F 0.7 °F 6.8 °F 79% 29.94 in 4.0 mi West 8.1 mph - N/A Snow Light Snow
3:13 PM 10.4 °F -2.4 °F 6.8 °F 85% 29.95 in 2.5 mi West 9.2 mph - N/A Snow Light Snow
3:33 PM 10.4 °F -2.4 °F 6.8 °F 85% 29.95 in 3.0 mi West 9.2 mph - N/A Snow Light Snow
3:53 PM 10.4 °F -0.4 °F 6.8 °F 85% 29.95 in 2.0 mi West 6.9 mph - N/A Snow Light Snow
4:13 PM 10.4 °F -3.3 °F 6.8 °F 85% 29.95 in 5.0 mi West 10.4 mph - N/A Snow Light Snow
4:33 PM 10.4 °F -3.3 °F 6.8 °F 85% 29.95 in 3.0 mi West 10.4 mph - N/A Snow Light Snow
4:53 PM 10.4 °F -2.4 °F 6.8 °F 85% 29.95 in 5.0 mi West 9.2 mph - N/A Snow Light Snow
5:13 PM 10.4 °F -1.5 °F 6.8 °F 85% 29.95 in 10.0 mi West 8.1 mph - N/A Snow Light Snow
5:33 PM 8.6 °F -3.7 °F 6.8 °F 92% 29.95 in 7.0 mi West 8.1 mph - N/A Snow Light Snow
5:53 PM 8.6 °F -2.6 °F 6.8 °F 92% 29.95 in 5.0 mi West 6.9 mph - N/A Snow Light Snow
6:33 PM 10.4 °F -1.5 °F 6.8 °F 85% 29.94 in 5.0 mi West 8.1 mph - N/A Snow Light Snow
6:53 PM 10.4 °F -2.4 °F 6.8 °F 85% 29.94 in 2.5 mi West 9.2 mph - N/A Snow Light Snow
7:13 PM 10.4 °F -0.4 °F 6.8 °F 85% 29.93 in 2.5 mi WSW 6.9 mph - N/A Snow Light Snow
7:33 PM 10.4 °F -0.4 °F 6.8 °F 85% 29.93 in 3.0 mi West 6.9 mph - N/A Snow Light Snow
7:53 PM 10.4 °F -1.5 °F 6.8 °F 85% 29.93 in 4.0 mi West 8.1 mph - N/A Snow Light Snow
8:13 PM 10.4 °F -1.5 °F 6.8 °F 85% 29.93 in 5.0 mi West 8.1 mph - N/A Snow Light Snow
8:33 PM 10.4 °F -1.5 °F 8.6 °F 92% 29.93 in 1.8 mi West 8.1 mph - N/A Snow Light Snow
8:53 PM 10.4 °F -2.4 °F 8.6 °F 92% 29.92 in 2.0 mi West 9.2 mph - N/A Snow Light Snow
9:13 PM 10.4 °F -2.4 °F 8.6 °F 92% 29.92 in 7.0 mi West 9.2 mph - N/A Snow Light Snow
9:33 PM 10.4 °F -3.3 °F 8.6 °F 92% 29.92 in 7.0 mi West 10.4 mph - N/A Snow Light Snow
9:53 PM 12.2 °F -0.2 °F 8.6 °F 85% 29.92 in 7.0 mi West 9.2 mph - N/A Snow Light Snow
10:13 PM 12.2 °F -1.0 °F 8.6 °F 85% 29.92 in 7.0 mi West 10.4 mph - N/A Snow Light Snow
10:33 PM 12.2 °F -0.2 °F 8.6 °F 85% 29.92 in 10.0 mi West 9.2 mph - N/A Snow Light Snow
10:53 PM 12.2 °F -0.2 °F 8.6 °F 85% 29.92 in 3.0 mi West 9.2 mph - N/A Snow Light Snow
11:13 PM 12.2 °F -1.0 °F 10.4 °F 92% 29.92 in 5.0 mi West 10.4 mph - N/A Snow Light Snow
11:33 PM 12.2 °F -1.0 °F 10.4 °F 92% 29.92 in 5.0 mi West 10.4 mph - N/A Snow Light Snow
11:53 PM 12.2 °F -1.0 °F 8.6 °F 85% 29.92 in 7.0 mi WNW 10.4 mph - N/A Snow Light Snow